GLO1848 SBGL-SBVT

Flight info

Callsign GLO1848
Flight time 0h 44m
Altitude 31000
Route TISVA UL206 TODET
Aircraft B738/M-SDE2E3FGHIRWXY/LB1

Departure

Time 2026-04-21 23:15
Airport Rio Galeão – Tom Jobim International Airport (SBGL)

Arrival

Time 2026-04-21 23:59
Airport Eurico de Aguiar Salles International Airport (SBVT)
Time Latitude Longitude Altitude Speed Heading
2026-04-21 22:36 -22.81550 -43.24754 21 ft 0 kts 41°
2026-04-21 23:02 -22.81557 -43.24760 21 ft 2 kts 41°
2026-04-21 23:02 -22.81570 -43.24772 22 ft 2 kts 39°
2026-04-21 23:03 -22.81583 -43.24783 23 ft 2 kts 20°
2026-04-21 23:03 -22.81598 -43.24781 23 ft 2 kts 315°
2026-04-21 23:03 -22.81602 -43.24776 19 ft 0 kts 308°
2026-04-21 23:07 -22.81592 -43.24792 21 ft 5 kts 303°
2026-04-21 23:07 -22.81554 -43.24845 22 ft 12 kts 317°
2026-04-21 23:07 -22.81503 -43.24915 21 ft 12 kts 302°
2026-04-21 23:07 -22.81462 -43.24991 21 ft 12 kts 300°
2026-04-21 23:08 -22.81422 -43.25065 21 ft 11 kts 301°
2026-04-21 23:08 -22.81373 -43.25129 21 ft 11 kts 318°
2026-04-21 23:08 -22.81325 -43.25191 21 ft 11 kts 307°
2026-04-21 23:08 -22.81283 -43.25255 21 ft 10 kts 306°
2026-04-21 23:09 -22.81233 -43.25314 21 ft 12 kts 319°
2026-04-21 23:09 -22.81151 -43.25367 21 ft 16 kts 339°
2026-04-21 23:09 -22.81031 -43.25386 21 ft 18 kts
2026-04-21 23:09 -22.80937 -43.25449 29 ft 17 kts 294°
2026-04-21 23:10 -22.80886 -43.25560 27 ft 16 kts 305°
2026-04-21 23:10 -22.80780 -43.25550 21 ft 18 kts 34°
2026-04-21 23:10 -22.80681 -43.25475 21 ft 17 kts 35°
2026-04-21 23:10 -22.80587 -43.25398 29 ft 17 kts 39°
2026-04-21 23:11 -22.80491 -43.25394 28 ft 14 kts 324°
2026-04-21 23:11 -22.80406 -43.25443 28 ft 13 kts 326°
2026-04-21 23:11 -22.80348 -43.25486 27 ft 1 kts 326°
2026-04-21 23:13 -22.80334 -43.25495 26 ft 6 kts 329°
2026-04-21 23:13 -22.80262 -43.25511 28 ft 16 kts 13°
2026-04-21 23:14 -22.80168 -43.25430 27 ft 16 kts 64°
2026-04-21 23:14 -22.80134 -43.25303 26 ft 42 kts 74°
2026-04-21 23:14 -22.79967 -43.24663 31 ft 132 kts 74°
2026-04-21 23:14 -22.79657 -43.23461 179 ft 195 kts 75°
2026-04-21 23:15 -22.79302 -43.21934 932 ft 220 kts 78°
2026-04-21 23:15 -22.78934 -43.20224 1679 ft 243 kts 77°
2026-04-21 23:15 -22.78526 -43.18375 2430 ft 258 kts 77°
2026-04-21 23:15 -22.78102 -43.16448 3089 ft 266 kts 78°
2026-04-21 23:16 -22.77674 -43.14477 3737 ft 271 kts 78°
2026-04-21 23:16 -22.77244 -43.12477 4407 ft 274 kts 78°
2026-04-21 23:16 -22.76807 -43.10469 5079 ft 277 kts 74°
2026-04-21 23:16 -22.76066 -43.08522 5723 ft 282 kts 63°
2026-04-21 23:17 -22.75126 -43.06638 6355 ft 287 kts 61°
2026-04-21 23:17 -22.74132 -43.04746 7000 ft 290 kts 60°
2026-04-21 23:17 -22.73123 -43.02825 7647 ft 294 kts 60°
2026-04-21 23:17 -22.72114 -43.00884 8326 ft 297 kts 61°
2026-04-21 23:18 -22.71109 -42.98930 9022 ft 301 kts 61°
2026-04-21 23:18 -22.70090 -42.96930 9730 ft 304 kts 62°
2026-04-21 23:18 -22.69067 -42.94908 10372 ft 310 kts 62°
2026-04-21 23:18 -22.67997 -42.92784 10591 ft 332 kts 62°
2026-04-21 23:19 -22.66857 -42.90514 10780 ft 352 kts 62°
2026-04-21 23:19 -22.65674 -42.88154 11249 ft 360 kts 62°
2026-04-21 23:19 -22.64473 -42.85757 11902 ft 362 kts 62°
2026-04-21 23:19 -22.63271 -42.83357 12588 ft 364 kts 62°
2026-04-21 23:20 -22.62071 -42.80961 13247 ft 367 kts 62°
2026-04-21 23:20 -22.60850 -42.78523 13899 ft 370 kts 62°
2026-04-21 23:20 -22.59615 -42.76057 14497 ft 373 kts 62°
2026-04-21 23:20 -22.58374 -42.73579 15098 ft 376 kts 62°
2026-04-21 23:21 -22.57118 -42.71074 15715 ft 379 kts 62°
2026-04-21 23:21 -22.55874 -42.68594 16311 ft 382 kts 62°
2026-04-21 23:21 -22.54603 -42.66060 16915 ft 384 kts 62°
2026-04-21 23:21 -22.53322 -42.63508 17502 ft 387 kts 62°
2026-04-21 23:22 -22.52031 -42.60939 18076 ft 391 kts 62°
2026-04-21 23:22 -22.50724 -42.58338 18610 ft 394 kts 62°
2026-04-21 23:22 -22.49412 -42.55728 19089 ft 397 kts 62°
2026-04-21 23:22 -22.48080 -42.53079 19564 ft 401 kts 62°
2026-04-21 23:23 -22.46740 -42.50416 20041 ft 404 kts 62°
2026-04-21 23:23 -22.45404 -42.47764 20501 ft 407 kts 63°
2026-04-21 23:23 -22.44040 -42.45056 20983 ft 411 kts 63°
2026-04-21 23:23 -22.42663 -42.42323 21435 ft 414 kts 63°
2026-04-21 23:24 -22.41278 -42.39578 21872 ft 418 kts 63°
2026-04-21 23:24 -22.39898 -42.36842 22307 ft 421 kts 63°
2026-04-21 23:24 -22.38489 -42.34051 22731 ft 424 kts 63°
2026-04-21 23:24 -22.37071 -42.31244 23158 ft 428 kts 63°
2026-04-21 23:25 -22.35639 -42.28411 23563 ft 431 kts 63°
2026-04-21 23:25 -22.34195 -42.25555 23931 ft 434 kts 63°
2026-04-21 23:25 -22.32741 -42.22681 24264 ft 437 kts 63°
2026-04-21 23:25 -22.31277 -42.19791 24615 ft 439 kts 63°
2026-04-21 23:26 -22.29806 -42.16887 24965 ft 441 kts 63°
2026-04-21 23:26 -22.28324 -42.13963 25298 ft 444 kts 63°
2026-04-21 23:26 -22.26856 -42.11068 25615 ft 447 kts 63°
2026-04-21 23:26 -22.25353 -42.08106 25949 ft 449 kts 63°
2026-04-21 23:27 -22.23841 -42.05129 26280 ft 452 kts 63°
2026-04-21 23:27 -22.22326 -42.02145 26597 ft 454 kts 63°
2026-04-21 23:27 -22.20804 -41.99150 26909 ft 457 kts 63°
2026-04-21 23:27 -22.19269 -41.96131 27214 ft 459 kts 63°
2026-04-21 23:28 -22.17725 -41.93095 27511 ft 462 kts 63°
2026-04-21 23:28 -22.16187 -41.90075 27810 ft 464 kts 63°
2026-04-21 23:28 -22.14589 -41.87037 28093 ft 467 kts 58°
2026-04-21 23:28 -22.12641 -41.84213 28373 ft 471 kts 50°
2026-04-21 23:29 -22.10298 -41.81728 28661 ft 475 kts 41°
2026-04-21 23:29 -22.07737 -41.79461 28968 ft 476 kts 39°
2026-04-21 23:29 -22.05142 -41.77222 29348 ft 476 kts 39°
2026-04-21 23:29 -22.02565 -41.74982 29774 ft 475 kts 40°
2026-04-21 23:30 -22.00046 -41.72757 30201 ft 474 kts 40°
2026-04-21 23:30 -21.97500 -41.70480 30509 ft 475 kts 40°
2026-04-21 23:30 -21.94958 -41.68201 30789 ft 476 kts 40°
2026-04-21 23:30 -21.92399 -41.65912 31081 ft 476 kts 40°
2026-04-21 23:31 -21.87284 -41.61359 31103 ft 480 kts 40°
2026-04-21 23:31 -21.82161 -41.56806 31086 ft 474 kts 40°
2026-04-21 23:32 -21.77063 -41.52276 31089 ft 475 kts 40°
2026-04-21 23:32 -21.72807 -41.48495 31098 ft 476 kts 40°
2026-04-21 23:33 -21.67708 -41.43969 31066 ft 467 kts 40°
2026-04-21 23:33 -21.62749 -41.39577 31100 ft 462 kts 39°
2026-04-21 23:34 -21.57754 -41.35173 30762 ft 465 kts 39°
2026-04-21 23:34 -21.55270 -41.32985 30382 ft 460 kts 39°
2026-04-21 23:34 -21.52800 -41.30808 29927 ft 456 kts 39°
2026-04-21 23:35 -21.50353 -41.28654 29452 ft 452 kts 39°
2026-04-21 23:35 -21.47970 -41.26549 29014 ft 448 kts 39°
2026-04-21 23:35 -21.45583 -41.24419 28559 ft 443 kts 40°
2026-04-21 23:35 -21.43222 -41.22304 28117 ft 439 kts 40°
2026-04-21 23:36 -21.40886 -41.20208 27683 ft 436 kts 40°
2026-04-21 23:36 -21.38568 -41.18129 27236 ft 432 kts 40°
2026-04-21 23:36 -21.36263 -41.16064 26800 ft 429 kts 40°
2026-04-21 23:36 -21.33979 -41.14020 26367 ft 426 kts 40°
2026-04-21 23:37 -21.31713 -41.11995 25939 ft 423 kts 40°
2026-04-21 23:37 -21.29458 -41.09981 25507 ft 420 kts 40°
2026-04-21 23:37 -21.27222 -41.07984 25087 ft 417 kts 40°
2026-04-21 23:37 -21.25024 -41.06022 24655 ft 415 kts 40°
2026-04-21 23:38 -21.22808 -41.04046 24228 ft 413 kts 40°
2026-04-21 23:38 -21.20605 -41.02082 23800 ft 411 kts 40°
2026-04-21 23:38 -21.18415 -41.00130 23318 ft 408 kts 40°
2026-04-21 23:38 -21.16235 -40.98188 22854 ft 404 kts 40°
2026-04-21 23:39 -21.14076 -40.96265 22418 ft 401 kts 40°
2026-04-21 23:39 -21.11964 -40.94385 21999 ft 397 kts 40°
2026-04-21 23:39 -21.09852 -40.92506 21586 ft 393 kts 40°
2026-04-21 23:39 -21.07749 -40.90635 21178 ft 389 kts 40°
2026-04-21 23:40 -21.05672 -40.88788 20774 ft 386 kts 40°
2026-04-21 23:40 -21.03612 -40.86957 20372 ft 383 kts 40°
2026-04-21 23:40 -21.01597 -40.85166 19979 ft 380 kts 40°
2026-04-21 23:40 -20.99572 -40.83367 19588 ft 377 kts 40°
2026-04-21 23:41 -20.97535 -40.81559 19193 ft 374 kts 40°
2026-04-21 23:41 -20.95565 -40.79810 18809 ft 372 kts 40°
2026-04-21 23:41 -20.93582 -40.78050 18424 ft 369 kts 40°
2026-04-21 23:41 -20.91586 -40.76280 17969 ft 367 kts 40°
2026-04-21 23:42 -20.89650 -40.74563 17550 ft 364 kts 40°
2026-04-21 23:42 -20.87703 -40.72837 17143 ft 361 kts 40°
2026-04-21 23:42 -20.85777 -40.71131 16757 ft 358 kts 40°
2026-04-21 23:42 -20.83860 -40.69433 16372 ft 355 kts 40°
2026-04-21 23:43 -20.81963 -40.67754 16000 ft 352 kts 40°
2026-04-21 23:43 -20.80081 -40.66087 15618 ft 350 kts 40°
2026-04-21 23:43 -20.78232 -40.64452 15256 ft 347 kts 40°
2026-04-21 23:43 -20.76380 -40.62813 14881 ft 345 kts 40°
2026-04-21 23:44 -20.74532 -40.61178 14510 ft 343 kts 40°
2026-04-21 23:44 -20.72696 -40.59555 14144 ft 342 kts 40°
2026-04-21 23:44 -20.70864 -40.57937 13747 ft 341 kts 39°
2026-04-21 23:44 -20.69043 -40.56327 13339 ft 339 kts 39°
2026-04-21 23:45 -20.67229 -40.54725 12953 ft 337 kts 39°
2026-04-21 23:45 -20.63665 -40.51579 12222 ft 332 kts 39°
2026-04-21 23:45 -20.61889 -40.50013 11853 ft 330 kts 39°
2026-04-21 23:46 -20.60123 -40.48454 11489 ft 328 kts 39°
2026-04-21 23:46 -20.58368 -40.46907 11128 ft 327 kts 39°
2026-04-21 23:46 -20.56613 -40.45360 10772 ft 325 kts 39°
2026-04-21 23:46 -20.54878 -40.43831 10554 ft 319 kts 39°
2026-04-21 23:47 -20.53190 -40.42344 10398 ft 311 kts 39°
2026-04-21 23:47 -20.51543 -40.40893 10254 ft 303 kts 39°
2026-04-21 23:47 -20.49938 -40.39479 10117 ft 295 kts 39°
2026-04-21 23:47 -20.48356 -40.38087 9828 ft 294 kts 39°
2026-04-21 23:48 -20.46798 -40.36717 9533 ft 292 kts 39°
2026-04-21 23:48 -20.45230 -40.35337 9144 ft 294 kts 39°
2026-04-21 23:48 -20.43636 -40.33936 8645 ft 300 kts 39°
2026-04-21 23:48 -20.42011 -40.32507 8246 ft 301 kts 39°
2026-04-21 23:49 -20.40423 -40.31111 8201 ft 290 kts 39°
2026-04-21 23:49 -20.38894 -40.29767 8123 ft 280 kts 39°
2026-04-21 23:49 -20.37436 -40.28486 8048 ft 270 kts 39°
2026-04-21 23:49 -20.36012 -40.27234 7970 ft 260 kts 39°
2026-04-21 23:50 -20.34638 -40.26028 7900 ft 251 kts 39°
2026-04-21 23:50 -20.33301 -40.24854 7751 ft 246 kts 39°
2026-04-21 23:50 -20.31975 -40.23690 7359 ft 252 kts 39°
2026-04-21 23:50 -20.30615 -40.22498 7138 ft 246 kts 39°
2026-04-21 23:51 -20.29323 -40.21363 7041 ft 234 kts 39°
2026-04-21 23:51 -20.28112 -40.20300 6887 ft 224 kts 39°
2026-04-21 23:51 -20.26913 -40.19249 6612 ft 222 kts 39°
2026-04-21 23:51 -20.25722 -40.18205 6287 ft 221 kts 39°
2026-04-21 23:52 -20.24532 -40.17162 5941 ft 221 kts 39°
2026-04-21 23:52 -20.23344 -40.16120 5577 ft 221 kts 39°
2026-04-21 23:52 -20.22169 -40.15091 5219 ft 221 kts 40°
2026-04-21 23:52 -20.20981 -40.14051 4867 ft 221 kts 40°
2026-04-21 23:53 -20.19807 -40.13023 4493 ft 222 kts 40°
2026-04-21 23:53 -20.18612 -40.11977 4134 ft 222 kts 40°
2026-04-21 23:53 -20.17276 -40.11236 3868 ft 218 kts
2026-04-21 23:53 -20.15804 -40.11438 3592 ft 213 kts 332°
2026-04-21 23:54 -20.14700 -40.12399 3317 ft 207 kts 306°
2026-04-21 23:54 -20.13907 -40.13655 3050 ft 203 kts 300°
2026-04-21 23:54 -20.13168 -40.14934 2749 ft 202 kts 299°
2026-04-21 23:54 -20.12431 -40.16209 2450 ft 201 kts 299°
2026-04-21 23:55 -20.11909 -40.17562 2135 ft 197 kts 272°
2026-04-21 23:55 -20.12080 -40.18933 2031 ft 179 kts 245°
2026-04-21 23:55 -20.12729 -40.20001 2022 ft 174 kts 222°
2026-04-21 23:55 -20.13711 -40.20733 2011 ft 170 kts 209°
2026-04-21 23:56 -20.14709 -40.21388 2017 ft 166 kts 210°
2026-04-21 23:56 -20.15646 -40.22006 2031 ft 148 kts 209°
2026-04-21 23:56 -20.16487 -40.22557 2009 ft 142 kts 209°
2026-04-21 23:56 -20.17321 -40.23103 1993 ft 140 kts 209°
2026-04-21 23:57 -20.18152 -40.23648 1998 ft 141 kts 209°
2026-04-21 23:57 -20.18990 -40.24193 1979 ft 144 kts 209°
2026-04-21 23:57 -20.19846 -40.24771 1834 ft 143 kts 210°
2026-04-21 23:57 -20.20714 -40.25349 1517 ft 149 kts 210°
2026-04-21 23:58 -20.21569 -40.25919 1236 ft 146 kts 210°
2026-04-21 23:58 -20.22459 -40.26490 854 ft 148 kts 210°
2026-04-21 23:58 -20.23318 -40.27036 598 ft 141 kts 212°
2026-04-21 23:58 -20.24158 -40.27600 266 ft 145 kts 209°
2026-04-21 23:59 -20.24988 -40.28148 70 ft 134 kts 212°
2026-04-21 23:59 -20.25700 -40.28608 18 ft 75 kts 211°
2026-04-21 23:59 -20.26041 -40.28843 20 ft 39 kts 212°
2026-04-21 23:59 -20.26257 -40.28987 25 ft 34 kts 212°
2026-04-22 00:00 -20.26376 -40.29069 24 ft 16 kts 225°
2026-04-22 00:00 -20.26368 -40.29124 23 ft 6 kts 346°
2026-04-22 00:00 -20.26325 -40.29134 21 ft 6 kts 347°
2026-04-22 00:00 -20.26281 -40.29144 21 ft 6 kts 352°
2026-04-22 00:01 -20.26230 -40.29143 21 ft 9 kts
2026-04-22 00:01 -20.26171 -40.29115 22 ft 9 kts 31°
2026-04-22 00:01 -20.26115 -40.29079 22 ft 9 kts 32°
2026-04-22 00:01 -20.26058 -40.29041 21 ft 11 kts 32°
2026-04-22 00:02 -20.25997 -40.28999 21 ft 10 kts 32°
2026-04-22 00:02 -20.25937 -40.28959 20 ft 10 kts 32°
2026-04-22 00:02 -20.25879 -40.28919 21 ft 10 kts 32°
2026-04-22 00:02 -20.25820 -40.28881 20 ft 10 kts 32°
2026-04-22 00:03 -20.25764 -40.28844 21 ft 9 kts 32°
2026-04-22 00:03 -20.25712 -40.28805 19 ft 9 kts 52°
2026-04-22 00:03 -20.25728 -40.28733 16 ft 12 kts 119°
2026-04-22 00:03 -20.25770 -40.28660 17 ft 11 kts 122°
2026-04-22 00:04 -20.25811 -40.28589 18 ft 11 kts 122°
2026-04-22 00:04 -20.25851 -40.28520 18 ft 12 kts 116°
2026-04-22 00:04 -20.25879 -40.28414 22 ft 18 kts 102°
2026-04-22 00:04 -20.25906 -40.28287 27 ft 17 kts 103°
2026-04-22 00:05 -20.25932 -40.28165 33 ft 15 kts 103°
2026-04-22 00:05 -20.26016 -40.28111 35 ft 15 kts 172°
2026-04-22 00:05 -20.26116 -40.28096 33 ft 14 kts 172°
2026-04-22 00:05 -20.26212 -40.28083 34 ft 14 kts 172°
2026-04-22 00:06 -20.26304 -40.28070 34 ft 13 kts 172°
2026-04-22 00:06 -20.26393 -40.28057 34 ft 13 kts 172°
2026-04-22 00:06 -20.26480 -40.28044 34 ft 12 kts 168°
2026-04-22 00:06 -20.26521 -40.28075 34 ft 6 kts 264°
2026-04-22 00:07 -20.26527 -40.28122 34 ft 6 kts 262°
2026-04-22 00:07 -20.26532 -40.28161 34 ft 4 kts 262°
2026-04-22 00:07 -20.26533 -40.28169 34 ft 0 kts 262°
2026-04-22 00:07 -20.26534 -40.28169 34 ft 0 kts 262°
2026-04-22 00:09 -20.26533 -40.28168 34 ft 2 kts 261°